Hourly Data Report for May 08, 2004

TORONTO CITY
ONTARIO

43°40'00.000" N
79°24'00.000" W
112.50 m
6158355
71508
XTO

Download Data

Hourly Data (May 2004)
Hourly Data Report for May 8, 2004
TIME
LST
Temp Definition
°C
Dew Point Definition
°C
Rel Hum Definition
%
Precip. Amount Definition
mm

Wind Dir Definition
10's deg

Wind Spd Definition
km/h
Visibility Definition
km
Stn Press Definition
kPa
Hmdx Definition


Wind Chill Definition


Weather Definition


00:00 7.9 -4.4 41   LegendMM LegendMM LegendMM 101.52     LegendNANA
01:00 7.1 -3.2 48   LegendMM LegendMM LegendMM 101.52     LegendNANA
02:00 7.0 -2.8 50   LegendMM LegendMM LegendMM 101.53     LegendNANA
03:00 6.9 -2.2 52   LegendMM LegendMM LegendMM 101.47     LegendNANA
04:00 7.3 -2.5 50   LegendMM LegendMM LegendMM 101.37     LegendNANA
05:00 7.1 -2.4 51   LegendMM LegendMM LegendMM 101.35     LegendNANA
06:00 7.2 -2.3 51   LegendMM LegendMM LegendMM 101.41     LegendNANA
07:00 6.9 -0.3 60   LegendMM LegendMM LegendMM 101.42     LegendNANA
08:00 7.9 -2.6 47   LegendMM LegendMM LegendMM 101.43     LegendNANA
09:00 7.5 -1.7 52   LegendMM LegendMM LegendMM 101.39     LegendNANA
10:00 7.4 -0.2 58   LegendMM LegendMM LegendMM 101.37     LegendNANA
11:00 7.3 1.1 65   LegendMM LegendMM LegendMM 101.37     LegendNANA
12:00 5.4 2.4 81   LegendMM LegendMM LegendMM 101.28     LegendNANA
13:00 5.3 3.3 87   LegendMM LegendMM LegendMM 101.15     LegendNANA
14:00 5.9 3.0 82   LegendMM LegendMM LegendMM 100.96     LegendNANA
15:00 5.2 2.8 84   LegendMM LegendMM LegendMM 100.88     LegendNANA
16:00 5.1 3.4 89   LegendMM LegendMM LegendMM 100.85     LegendNANA
17:00 5.8 3.7 86   LegendMM LegendMM LegendMM 100.84     LegendNANA
18:00 6.1 3.6 84   LegendMM LegendMM LegendMM 100.75     LegendNANA
19:00 6.4 3.2 80   LegendMM LegendMM LegendMM 100.72     LegendNANA
20:00 6.1 3.2 82   LegendMM LegendMM LegendMM 100.69     LegendNANA
21:00 6.6 3.4 80   LegendMM LegendMM LegendMM 100.68     LegendNANA
22:00 6.9 3.7 80   LegendMM LegendMM LegendMM 100.67     LegendNANA
23:00 7.0 3.7 79   LegendMM LegendMM LegendMM 100.55     LegendNANA

Notes on Data Quality.

Legend

  • E = Estimated
  • M = Missing
  • NA = Not Available*
  • [empty] = Indicates an unobserved value
Date modified: